| time (UTC) | temp C | wind direction | speed KPH | gust KPH | rain 1hr cm | rain 24hr cm | rain mn cm | humidity % | barometer mb |
| 20260902031312 | 11 | 22 | 4.8 | 6.4 | 0.00 | 0.00 | 0.00 | 84 | 1020.3 |
| 20260902030312 | 11 | 22 | 0.0 | 6.4 | 0.00 | 0.00 | 0.00 | 84 | 1020.5 |
| 20260902025312 | 11 | 45 | 1.6 | 6.4 | 0.00 | 0.00 | 0.00 | 83 | 1020.3 |
| 20260902024311 | 12 | 22 | 4.8 | 6.4 | 0.00 | 0.00 | 0.00 | 83 | 1020.5 |
| 20260902023312 | 12 | 22 | 4.8 | 6.4 | 0.00 | 0.00 | 0.00 | 83 | 1020.3 |
| 20260902022311 | 12 | 22 | 4.8 | 8.0 | 0.00 | 0.00 | 0.00 | 82 | 1020.3 |
| 20260902021311 | 12 | 0 | 0.0 | 4.8 | 0.00 | 0.00 | 0.00 | 82 | 1020.5 |
| 20260902020312 | 12 | 22 | 3.2 | 8.0 | 0.00 | 0.00 | 0.00 | 80 | 1020.4 |
| 20260902015311 | 12 | 45 | 6.4 | 11.3 | 0.00 | 0.00 | 0.00 | 80 | 1020.2 |
| 20260902013311 | 12 | 45 | 4.8 | 9.7 | 0.00 | 0.00 | 0.00 | 80 | 1020.5 |
| 20260902012310 | 12 | 45 | 4.8 | 8.0 | 0.00 | 0.00 | 0.00 | 80 | 1020.3 |
| 20260902011311 | 12 | 45 | 4.8 | 11.3 | 0.00 | 0.00 | 0.00 | 81 | 1020.4 |
| 20260902010310 | 12 | 22 | 4.8 | 8.0 | 0.00 | 0.00 | 0.00 | 81 | 1020.4 |
| 20260902005310 | 12 | 45 | 6.4 | 9.7 | 0.00 | 0.00 | 0.00 | 82 | 1020.4 |
| 20260902004310 | 12 | 45 | 4.8 | 6.4 | 0.00 | 0.00 | 0.00 | 82 | 1020.2 |
| 20260902003310 | 12 | 22 | 1.6 | 6.4 | 0.00 | 0.00 | 0.00 | 82 | 1020.4 |
| 20260902002310 | 12 | 45 | 4.8 | 9.7 | 0.00 | 0.00 | 0.00 | 82 | 1020.4 |
| 20260902001310 | 12 | 45 | 4.8 | 8.0 | 0.00 | 0.00 | 0.00 | 81 | 1020.4 |
| 20260901235309 | 12 | 22 | 4.8 | 8.0 | 0.00 | 0.00 | 0.00 | 81 | 1020.3 |
| 20260901234309 | 12 | 22 | 3.2 | 6.4 | 0.00 | 0.00 | 0.00 | 81 | 1020.2 |
| 20260901233309 | 12 | 45 | 4.8 | 8.0 | 0.00 | 0.00 | 0.00 | 80 | 1020.5 |
| 20260901230313 | 13 | 22 | 4.8 | 11.3 | 0.00 | 0.00 | 0.00 | 79 | 1020.7 |
| 20260901225314 | 13 | 22 | 6.4 | 8.0 | 0.00 | 0.00 | 0.00 | 80 | 1020.9 |
| 20260901223313 | 13 | 22 | 4.8 | 6.4 | 0.00 | 0.00 | 0.00 | 79 | 1020.8 |
| 20260901222313 | 13 | 22 | 4.8 | 8.0 | 0.00 | 0.00 | 0.00 | 79 | 1020.8 |
| 20260901221313 | 13 | 45 | 4.8 | 8.0 | 0.00 | 0.00 | 0.00 | 79 | 1020.8 |
| 20260901220313 | 13 | 22 | 1.6 | 6.4 | 0.00 | 0.00 | 0.00 | 80 | 1020.8 |
| 20260901215313 | 13 | 45 | 0.0 | 6.4 | 0.00 | 0.00 | 0.00 | 80 | 1020.7 |
| 20260901214313 | 13 | 45 | 6.4 | 8.0 | 0.00 | 0.00 | 0.00 | 80 | 1020.8 |
| 20260901213312 | 13 | 22 | 4.8 | 9.7 | 0.00 | 0.00 | 0.00 | 80 | 1020.8 |
| 20260901210312 | 13 | 22 | 4.8 | 8.0 | 0.00 | 0.00 | 0.00 | 79 | 1020.5 |
| 20260901205312 | 13 | 22 | 3.2 | 8.0 | 0.00 | 0.00 | 0.00 | 80 | 1020.6 |
| 20260901203312 | 13 | 22 | 4.8 | 6.4 | 0.00 | 0.00 | 0.00 | 80 | 1020.4 |
| 20260901202312 | 13 | 22 | 3.2 | 6.4 | 0.00 | 0.00 | 0.00 | 81 | 1020.4 |
| 20260901200311 | 13 | 22 | 4.8 | 6.4 | 0.00 | 0.00 | 0.00 | 81 | 1020.2 |
| 20260901195311 | 13 | 22 | 3.2 | 6.4 | 0.00 | 0.00 | 0.00 | 82 | 1020.0 |
| 20260901194311 | 13 | 22 | 4.8 | 6.4 | 0.00 | 0.00 | 0.00 | 81 | 1019.9 |
| 20260901193311 | 13 | 22 | 4.8 | 8.0 | 0.00 | 0.00 | 0.00 | 80 | 1019.6 |
| 20260901192312 | 13 | 22 | 4.8 | 8.0 | 0.00 | 0.00 | 0.00 | 79 | 1019.6 |
| 20260901191310 | 13 | 22 | 4.8 | 6.4 | 0.00 | 0.00 | 0.00 | 79 | 1019.5 |
| 20260901190310 | 13 | 22 | 1.6 | 4.8 | 0.00 | 0.00 | 0.00 | 78 | 1019.5 |
| 20260901185310 | 13 | 22 | 4.8 | 8.0 | 0.00 | 0.00 | 0.00 | 77 | 1019.5 |
| 20260901184310 | 13 | 22 | 4.8 | 6.4 | 0.00 | 0.00 | 0.00 | 75 | 1019.5 |
| 20260901183310 | 14 | 45 | 3.2 | 6.4 | 0.00 | 0.00 | 0.00 | 74 | 1019.3 |
| 20260901182310 | 15 | 22 | 4.8 | 8.0 | 0.00 | 0.00 | 0.00 | 72 | 1019.5 |
| 20260901180310 | 16 | 22 | 4.8 | 6.4 | 0.00 | 0.00 | 0.00 | 69 | 1019.1 |
| 20260901174309 | 17 | 0 | 0.0 | 0.0 | 0.00 | 0.00 | 0.00 | 65 | 1019.3 |
| 20260901173309 | 17 | 360 | 1.6 | 6.4 | 0.00 | 0.00 | 0.00 | 64 | 1019.4 |
| 20260901172309 | 18 | 360 | 1.6 | 6.4 | 0.00 | 0.00 | 0.00 | 62 | 1019.4 |
| 20260901171314 | 18 | 0 | 0.0 | 0.0 | 0.00 | 0.00 | 0.00 | 60 | 1019.6 |
| 20260901170314 | 18 | 0 | 0.0 | 3.2 | 0.00 | 0.00 | 0.00 | 57 | 1019.6 |
| 20260901165313 | 18 | 180 | 1.6 | 4.8 | 0.00 | 0.00 | 0.00 | 56 | 1019.6 |
| 20260901164314 | 18 | 202 | 0.0 | 6.4 | 0.00 | 0.00 | 0.00 | 54 | 1019.5 |
| 20260901163314 | 19 | 180 | 3.2 | 11.3 | 0.00 | 0.00 | 0.00 | 53 | 1019.5 |
| 20260901162313 | 19 | 292 | 0.0 | 6.4 | 0.00 | 0.00 | 0.00 | 55 | 1019.6 |
| 20260901160313 | 18 | 0 | 0.0 | 3.2 | 0.00 | 0.00 | 0.00 | 55 | 1019.6 |
| 20260901155313 | 18 | 202 | 1.6 | 6.4 | 0.00 | 0.00 | 0.00 | 53 | 1019.6 |
| 20260901154313 | 19 | 202 | 1.6 | 12.9 | 0.00 | 0.00 | 0.00 | 53 | 1019.5 |
| 20260901152313 | 20 | 180 | 9.7 | 16.1 | 0.00 | 0.00 | 0.00 | 51 | 1019.7 |
| 20260901151313 | 20 | 180 | 4.8 | 11.3 | 0.00 | 0.00 | 0.00 | 49 | 1019.7 |
| 20260901150314 | 20 | 337 | 6.4 | 12.9 | 0.00 | 0.00 | 0.00 | 52 | 1019.8 |
| 20260901145312 | 20 | 270 | 3.2 | 11.3 | 0.00 | 0.00 | 0.00 | 52 | 1019.7 |
| 20260901144312 | 20 | 180 | 6.4 | 14.5 | 0.00 | 0.00 | 0.00 | 50 | 1019.7 |
| 20260901143312 | 19 | 270 | 0.0 | 14.5 | 0.00 | 0.00 | 0.00 | 53 | 1019.6 |
| 20260901142312 | 19 | 180 | 4.8 | 17.7 | 0.00 | 0.00 | 0.00 | 54 | 1019.7 |
| 20260901141313 | 20 | 315 | 1.6 | 12.9 | 0.00 | 0.00 | 0.00 | 55 | 1020.1 |
| 20260901140311 | 20 | 315 | 6.4 | 14.5 | 0.00 | 0.00 | 0.00 | 54 | 1020.3 |
| 20260901135311 | 19 | 180 | 3.2 | 12.9 | 0.00 | 0.00 | 0.00 | 57 | 1020.1 |
| 20260901134311 | 19 | 337 | 3.2 | 12.9 | 0.00 | 0.00 | 0.00 | 56 | 1020.1 |
| 20260901133311 | 20 | 180 | 4.8 | 19.3 | 0.00 | 0.00 | 0.00 | 56 | 1020.3 |
| 20260901131311 | 20 | 202 | 4.8 | 11.3 | 0.00 | 0.00 | 0.00 | 54 | 1020.3 |
| 20260901130311 | 20 | 292 | 3.2 | 16.1 | 0.00 | 0.00 | 0.00 | 53 | 1020.3 |
| 20260901125310 | 20 | 292 | 4.8 | 20.9 | 0.00 | 0.00 | 0.00 | 53 | 1020.3 |
| 20260901124310 | 19 | 247 | 6.4 | 20.9 | 0.00 | 0.00 | 0.00 | 54 | 1020.3 |
| 20260901123310 | 20 | 180 | 3.2 | 16.1 | 0.00 | 0.00 | 0.00 | 58 | 1020.6 |
| 20260901121310 | 19 | 180 | 4.8 | 17.7 | 0.00 | 0.00 | 0.00 | 55 | 1020.5 |
| 20260901120310 | 19 | 180 | 1.6 | 24.1 | 0.00 | 0.00 | 0.00 | 54 | 1020.3 |
| 20260901115310 | 18 | 180 | 1.6 | 16.1 | 0.00 | 0.00 | 0.00 | 58 | 1020.4 |
| 20260901113310 | 19 | 315 | 4.8 | 19.3 | 0.00 | 0.00 | 0.00 | 57 | 1020.4 |
| 20260901111309 | 19 | 292 | 1.6 | 16.1 | 0.00 | 0.00 | 0.00 | 56 | 1020.4 |
| 20260901110309 | 19 | 202 | 14.5 | 20.9 | 0.00 | 0.00 | 0.00 | 56 | 1020.3 |
| 20260901105314 | 20 | 180 | 8.0 | 29.0 | 0.00 | 0.00 | 0.00 | 56 | 1020.3 |
| 20260901104314 | 19 | 180 | 8.0 | 20.9 | 0.00 | 0.00 | 0.00 | 57 | 1020.4 |
| 20260901103314 | 19 | 202 | 4.8 | 16.1 | 0.00 | 0.00 | 0.00 | 60 | 1020.3 |
| 20260901102313 | 18 | 360 | 4.8 | 16.1 | 0.00 | 0.00 | 0.00 | 62 | 1020.3 |
| 20260901101313 | 19 | 180 | 0.0 | 14.5 | 0.00 | 0.00 | 0.00 | 60 | 1020.3 |
| 20260901100313 | 18 | 202 | 3.2 | 16.1 | 0.00 | 0.00 | 0.00 | 62 | 1020.1 |
| 20260901095313 | 18 | 247 | 1.6 | 9.7 | 0.00 | 0.00 | 0.00 | 62 | 1020.1 |
| 20260901094313 | 18 | 292 | 4.8 | 14.5 | 0.00 | 0.00 | 0.00 | 61 | 1020.3 |
| 20260901093313 | 18 | 337 | 16.1 | 24.1 | 0.00 | 0.00 | 0.00 | 64 | 1020.1 |
| 20260901092313 | 18 | 180 | 6.4 | 14.5 | 0.00 | 0.00 | 0.00 | 66 | 1020.3 |
| 20260901091313 | 18 | 225 | 1.6 | 12.9 | 0.00 | 0.00 | 0.00 | 65 | 1020.2 |
| 20260901085312 | 17 | 180 | 11.3 | 24.1 | 0.00 | 0.00 | 0.00 | 66 | 1020.0 |
| 20260901084312 | 17 | 202 | 4.8 | 19.3 | 0.00 | 0.00 | 0.00 | 69 | 1019.9 |
| 20260901083312 | 17 | 180 | 4.8 | 19.3 | 0.00 | 0.00 | 0.00 | 67 | 1020.0 |
| 20260901082312 | 17 | 180 | 4.8 | 16.1 | 0.00 | 0.00 | 0.00 | 70 | 1020.0 |
| 20260901081312 | 16 | 247 | 3.2 | 19.3 | 0.00 | 0.00 | 0.00 | 71 | 1020.1 |
| 20260901080312 | 16 | 292 | 3.2 | 12.9 | 0.00 | 0.00 | 0.00 | 73 | 1019.9 |
| 20260901075311 | 16 | 292 | 0.0 | 6.4 | 0.00 | 0.00 | 0.00 | 75 | 1019.9 |
| 20260901074311 | 15 | 0 | 0.0 | 8.0 | 0.00 | 0.00 | 0.00 | 78 | 1019.7 |
| 20260901072311 | 14 | 202 | 0.0 | 9.7 | 0.00 | 0.00 | 0.00 | 81 | 1019.7 |
| 20260901071311 | 14 | 180 | 1.6 | 6.4 | 0.00 | 0.00 | 0.00 | 80 | 1019.7 |
| 20260901070311 | 14 | 180 | 0.0 | 4.8 | 0.00 | 0.00 | 0.00 | 81 | 1019.4 |
| 20260901065311 | 14 | 202 | 8.0 | 9.7 | 0.00 | 0.00 | 0.00 | 81 | 1019.4 |
| 20260901064311 | 13 | 157 | 0.0 | 9.7 | 0.00 | 0.00 | 0.00 | 81 | 1019.5 |
| 20260901060310 | 13 | 0 | 0.0 | 0.0 | 0.00 | 0.00 | 0.00 | 84 | 1019.6 |
| 20260901055310 | 13 | 0 | 0.0 | 0.0 | 0.00 | 0.00 | 0.00 | 84 | 1019.6 |
| 20260901054310 | 13 | 0 | 0.0 | 0.0 | 0.00 | 0.00 | 0.00 | 84 | 1019.6 |
| 20260901053310 | 13 | 0 | 0.0 | 0.0 | 0.00 | 0.00 | 0.00 | 83 | 1019.6 |
| 20260901052309 | 13 | 0 | 0.0 | 0.0 | 0.00 | 0.00 | 0.00 | 83 | 1019.8 |
| 20260901051309 | 13 | 0 | 0.0 | 0.0 | 0.00 | 0.00 | 0.00 | 83 | 1019.8 |
| 20260901050309 | 13 | 0 | 0.0 | 0.0 | 0.00 | 0.03 | 0.00 | 83 | 1019.8 |
| 20260901045309 | 13 | 0 | 0.0 | 0.0 | 0.00 | 0.03 | 0.00 | 83 | 1019.8 |
| 20260901044314 | 13 | 0 | 0.0 | 4.8 | 0.00 | 0.03 | 0.00 | 83 | 1019.8 |
| 20260901043314 | 13 | 0 | 0.0 | 0.0 | 0.00 | 0.03 | 0.00 | 82 | 1019.7 |
| 20260901042314 | 13 | 0 | 0.0 | 0.0 | 0.00 | 0.03 | 0.00 | 82 | 1019.7 |
| 20260901041314 | 13 | 0 | 0.0 | 0.0 | 0.00 | 0.03 | 0.00 | 82 | 1019.7 |
| 20260901040313 | 13 | 0 | 0.0 | 0.0 | 0.00 | 0.03 | 0.00 | 82 | 1019.7 |
| 20260901035313 | 13 | 0 | 0.0 | 0.0 | 0.00 | 0.03 | 0.00 | 82 | 1019.7 |
| 20260901034313 | 13 | 0 | 0.0 | 4.8 | 0.00 | 0.03 | 0.00 | 82 | 1019.7 |